This is the latest recevied weather packets stored in our database for station/object CALDNA-WX. If no packets are shown the sender has not sent any weather packets the latest 1 day(s).
| Time | Temp. | Humidity | Pressure | Rain* | Wind** | Luminosity | Snow |
|---|---|---|---|---|---|---|---|
| 1777991442 | 10° C | 40% | 979.3 hPa | 0 mm | 5.81 m/s, 273° | - | - |
| 1777990523 | 11.11° C | 40% | 979.3 hPa | 0 mm | 5.36 m/s, 274° | - | - |
| 1777989655 | 11.11° C | 40% | 979.3 hPa | 0 mm | 4.92 m/s, 276° | - | - |
| 1777988724 | 10.56° C | 46% | 979.3 hPa | 0 mm | 4.92 m/s, 288° | - | - |
| 1777987843 | 10.56° C | 46% | 979.3 hPa | 0 mm | 5.81 m/s, 294° | - | - |
| 1777986924 | 10.56° C | 46% | 979.3 hPa | 0 mm | 6.71 m/s, 291° | - | - |
| 1777986051 | 11.11° C | 46% | 979.3 hPa | 0 mm | 5.36 m/s, 296° | - | - |
| 1777985123 | 11.11° C | 65% | 978.7 hPa | 0 mm | 5.36 m/s, 298° | - | - |
| 1777984243 | 11.11° C | 62% | 977 hPa | 0 mm | 3.13 m/s, 296° | - | - |
| 1777983323 | 10.56° C | 62% | 977 hPa | 0 mm | 2.68 m/s, 318° | - | - |
| 1777982457 | 10.56° C | 62% | 977 hPa | 0 mm | 3.13 m/s, 315° | - | - |
| 1777981524 | 10° C | 61% | 977 hPa | 0 mm | 4.02 m/s, 303° | - | - |
| 1777980641 | 10° C | 62% | 975.4 hPa | 0 mm | 4.47 m/s, 317° | - | - |
| 1777979723 | 10.56° C | 62% | 975.4 hPa | 0 mm | 4.02 m/s, 333° | - | - |
| 1777978854 | 10.56° C | 62% | 975.4 hPa | 0 mm | 4.02 m/s, 316° | - | - |
| 1777977924 | 10.56° C | 51% | 973.9 hPa | 0 mm | 4.92 m/s, 298° | - | - |
| 1777977041 | 10° C | 51% | 973.9 hPa | 0 mm | 5.36 m/s, 287° | - | - |
| 1777976123 | 10.56° C | 51% | 973.9 hPa | 0 mm | 4.92 m/s, 279° | - | - |
| 1777975253 | 11.11° C | 51% | 973.9 hPa | 0 mm | 4.92 m/s, 275° | - | - |
| 1777974323 | 11.11° C | 48% | 974.1 hPa | 0 mm | 4.47 m/s, 268° | - | - |
| 1777973445 | 11.67° C | 50% | 973.8 hPa | 0 mm | 4.02 m/s, 270° | - | - |
| 1777972523 | 11.67° C | 50% | 973.8 hPa | 0 mm | 4.02 m/s, 258° | - | - |
| 1777971656 | 11.67° C | 50% | 973.8 hPa | 0 mm | 4.02 m/s, 256° | - | - |
| 1777970721 | 12.22° C | 59% | 974.1 hPa | 0 mm | 4.47 m/s, 271° | - | - |
| 1777969842 | 12.22° C | 71% | 973.4 hPa | 0 mm | 4.02 m/s, 274° | - | - |
* Rain latest hour (hover to see other rain measurements)
** Current wind speed in m/s (hover to see current wind gust speed)